JAL2655 RJER-RJCC

Flight info

Callsign JAL2655
Flight time 0h 37m
Altitude 28000
Route LEDAX A204 YOROI Y10 RUMOI V1 CHE
Aircraft A359/H-SDE2E3GHIJ3J4J5LM1ORWXY/LB1D1

Departure

Time 2026-05-06 12:45
Airport Rishiri Airport (RJER)

Arrival

Time 2026-05-06 13:22
Airport New Chitose Airport (RJCC)
Time Latitude Longitude Altitude Speed Heading
2026-05-06 11:57 45.24309 141.18355 107 ft 0 kts 57°
2026-05-06 12:40 45.24328 141.18400 102 ft 8 kts 62°
2026-05-06 12:41 45.24321 141.18439 105 ft 4 kts 124°
2026-05-06 12:41 45.24278 141.18488 107 ft 11 kts 148°
2026-05-06 12:41 45.24232 141.18529 105 ft 7 kts 148°
2026-05-06 12:41 45.24200 141.18557 110 ft 3 kts 148°
2026-05-06 12:42 45.24197 141.18560 109 ft 1 kts 147°
2026-05-06 12:42 45.24164 141.18590 113 ft 8 kts 147°
2026-05-06 12:42 45.24107 141.18554 114 ft 17 kts 235°
2026-05-06 12:42 45.24034 141.18398 114 ft 20 kts 237°
2026-05-06 12:43 45.23957 141.18231 114 ft 21 kts 237°
2026-05-06 12:43 45.23875 141.18052 117 ft 21 kts 237°
2026-05-06 12:43 45.23810 141.17911 114 ft 9 kts 230°
2026-05-06 12:43 45.23772 141.17878 116 ft 7 kts 220°
2026-05-06 12:44 45.23770 141.17854 115 ft 1 kts 292°
2026-05-06 12:44 45.23785 141.17852 113 ft 3 kts 12°
2026-05-06 12:44 45.23804 141.17889 115 ft 0 kts 62°
2026-05-06 12:45 45.23900 141.18106 117 ft 76 kts 57°
2026-05-06 12:45 45.24375 141.19151 128 ft 170 kts 57°
2026-05-06 12:45 45.25613 141.21957 2037 ft 171 kts 60°
2026-05-06 12:46 45.26256 141.23529 2351 ft 199 kts 62°
2026-05-06 12:46 45.26966 141.25367 2657 ft 225 kts 63°
2026-05-06 12:46 45.27790 141.27405 2954 ft 252 kts 60°
2026-05-06 12:46 45.28754 141.29660 3271 ft 280 kts 57°
2026-05-06 12:47 45.29916 141.31965 3950 ft 290 kts 53°
2026-05-06 12:47 45.31137 141.34242 4903 ft 291 kts 51°
2026-05-06 12:47 45.32193 141.36722 5666 ft 300 kts 70°
2026-05-06 12:47 45.32393 141.39684 6236 ft 308 kts 104°
2026-05-06 12:48 45.31511 141.42402 6915 ft 303 kts 137°
2026-05-06 12:48 45.29889 141.44212 7697 ft 296 kts 159°
2026-05-06 12:48 45.28085 141.45572 8787 ft 290 kts 162°
2026-05-06 12:48 45.26309 141.46895 9908 ft 289 kts 158°
2026-05-06 12:49 45.24602 141.48449 10778 ft 298 kts 155°
2026-05-06 12:49 45.22793 141.50069 11215 ft 315 kts 161°
2026-05-06 12:49 45.20737 141.51321 11583 ft 330 kts 168°
2026-05-06 12:49 45.18504 141.52436 11966 ft 350 kts 169°
2026-05-06 12:50 45.16157 141.53578 12562 ft 361 kts 169°
2026-05-06 12:50 45.13793 141.54731 13355 ft 367 kts 170°
2026-05-06 12:50 45.11384 141.56069 14081 ft 381 kts 162°
2026-05-06 12:50 45.09128 141.58364 14581 ft 411 kts 141°
2026-05-06 12:51 45.07369 141.61565 15320 ft 422 kts 129°
2026-05-06 12:51 45.05829 141.65130 16104 ft 428 kts 124°
2026-05-06 12:51 45.04402 141.68850 16863 ft 432 kts 123°
2026-05-06 12:51 45.02902 141.72525 17595 ft 431 kts 131°
2026-05-06 12:52 45.00897 141.75594 18315 ft 421 kts 148°
2026-05-06 12:52 44.98395 141.77589 18921 ft 408 kts 168°
2026-05-06 12:52 44.95661 141.78358 19543 ft 398 kts 182°
2026-05-06 12:52 44.92897 141.78529 20193 ft 397 kts 187°
2026-05-06 12:53 44.90134 141.78431 20888 ft 398 kts 190°
2026-05-06 12:53 44.87356 141.78221 21569 ft 402 kts 191°
2026-05-06 12:53 44.84551 141.77988 22252 ft 406 kts 190°
2026-05-06 12:53 44.81718 141.77775 22911 ft 410 kts 190°
2026-05-06 12:54 44.78848 141.77592 23551 ft 415 kts 189°
2026-05-06 12:54 44.75952 141.77436 24096 ft 420 kts 189°
2026-05-06 12:54 44.73014 141.77298 24646 ft 424 kts 189°
2026-05-06 12:54 44.70056 141.77170 25198 ft 427 kts 189°
2026-05-06 12:55 44.67071 141.77044 25739 ft 431 kts 189°
2026-05-06 12:55 44.64060 141.76918 26284 ft 435 kts 189°
2026-05-06 12:55 44.61025 141.76790 26843 ft 438 kts 189°
2026-05-06 12:55 44.57969 141.76659 27375 ft 442 kts 189°
2026-05-06 12:56 44.54885 141.76526 27800 ft 446 kts 189°
2026-05-06 12:56 44.53807 141.76479 27871 ft 446 kts 189°
2026-05-06 12:59 44.52232 141.76411 27925 ft 451 kts 189°
2026-05-06 12:59 44.49050 141.76265 27930 ft 466 kts 189°
2026-05-06 12:59 44.45771 141.76115 27900 ft 473 kts 188°
2026-05-06 13:00 44.42524 141.75982 27718 ft 461 kts 188°
2026-05-06 13:00 44.39362 141.75866 27389 ft 450 kts 188°
2026-05-06 13:00 44.36246 141.75745 26769 ft 447 kts 188°
2026-05-06 13:00 44.33154 141.75616 26194 ft 442 kts 188°
2026-05-06 13:01 44.30090 141.75486 25632 ft 438 kts 188°
2026-05-06 13:01 44.27061 141.75355 25091 ft 434 kts 188°
2026-05-06 13:01 44.24060 141.75224 24548 ft 429 kts 188°
2026-05-06 13:01 44.21093 141.75095 24002 ft 425 kts 188°
2026-05-06 13:02 44.18152 141.74969 23473 ft 420 kts 188°
2026-05-06 13:02 44.15243 141.74844 22884 ft 416 kts 188°
2026-05-06 13:02 44.12372 141.74722 22353 ft 411 kts 188°
2026-05-06 13:02 44.09528 141.74599 21833 ft 407 kts 188°
2026-05-06 13:03 44.06704 141.74475 21320 ft 405 kts 188°
2026-05-06 13:03 44.03895 141.74353 20789 ft 402 kts 188°
2026-05-06 13:03 44.01108 141.74234 20275 ft 399 kts 188°
2026-05-06 13:03 43.98343 141.74116 19739 ft 396 kts 188°
2026-05-06 13:04 43.95600 141.73999 19236 ft 393 kts 188°
2026-05-06 13:04 43.92871 141.73882 18712 ft 391 kts 188°
2026-05-06 13:04 43.90145 141.73759 18222 ft 397 kts 188°
2026-05-06 13:04 43.87396 141.73633 17603 ft 393 kts 188°
2026-05-06 13:05 43.84681 141.73520 17052 ft 387 kts 188°
2026-05-06 13:05 43.82012 141.73413 16514 ft 381 kts 188°
2026-05-06 13:05 43.79383 141.73305 15988 ft 375 kts 188°
2026-05-06 13:05 43.76784 141.73194 15467 ft 372 kts 188°
2026-05-06 13:06 43.74209 141.73085 14932 ft 369 kts 188°
2026-05-06 13:06 43.71655 141.72976 14399 ft 367 kts 188°
2026-05-06 13:06 43.69111 141.72869 13788 ft 364 kts 188°
2026-05-06 13:06 43.66588 141.72770 13136 ft 361 kts 188°
2026-05-06 13:07 43.64083 141.72682 12534 ft 358 kts 188°
2026-05-06 13:07 43.61605 141.72606 11944 ft 356 kts 187°
2026-05-06 13:07 43.59171 141.72527 11481 ft 350 kts 187°
2026-05-06 13:07 43.56793 141.72453 11345 ft 334 kts 187°
2026-05-06 13:08 43.54527 141.72386 11203 ft 317 kts 187°
2026-05-06 13:08 43.52370 141.72322 11084 ft 303 kts 187°
2026-05-06 13:08 43.50311 141.72250 10931 ft 289 kts 188°
2026-05-06 13:08 43.48344 141.72181 10814 ft 276 kts 188°
2026-05-06 13:09 43.46459 141.72116 10676 ft 266 kts 188°
2026-05-06 13:09 43.44641 141.72053 10556 ft 260 kts 188°
2026-05-06 13:09 43.42829 141.71979 10385 ft 260 kts 188°
2026-05-06 13:09 43.41026 141.71902 10132 ft 259 kts 188°
2026-05-06 13:10 43.39222 141.71831 9827 ft 262 kts 188°
2026-05-06 13:10 43.37368 141.71601 9649 ft 272 kts 194°
2026-05-06 13:10 43.35499 141.71199 9453 ft 270 kts 195°
2026-05-06 13:10 43.33648 141.70775 8934 ft 270 kts 195°
2026-05-06 13:11 43.31804 141.70338 8548 ft 268 kts 195°
2026-05-06 13:11 43.29977 141.69900 8226 ft 266 kts 196°
2026-05-06 13:11 43.28155 141.69461 7915 ft 265 kts 196°
2026-05-06 13:11 43.26348 141.69024 7607 ft 263 kts 196°
2026-05-06 13:12 43.24593 141.68604 7378 ft 247 kts 197°
2026-05-06 13:12 43.22949 141.68214 7090 ft 235 kts 197°
2026-05-06 13:12 43.21370 141.67831 6934 ft 226 kts 198°
2026-05-06 13:12 43.19856 141.67464 6780 ft 217 kts 198°
2026-05-06 13:13 43.18390 141.67107 6553 ft 212 kts 198°
2026-05-06 13:13 43.16945 141.66753 6271 ft 210 kts 198°
2026-05-06 13:13 43.15515 141.66401 5900 ft 209 kts 198°
2026-05-06 13:13 43.14084 141.66050 5567 ft 209 kts 198°
2026-05-06 13:14 43.12654 141.65700 5259 ft 208 kts 197°
2026-05-06 13:14 43.11232 141.65355 4950 ft 207 kts 197°
2026-05-06 13:14 43.09815 141.65013 4660 ft 206 kts 197°
2026-05-06 13:14 43.08409 141.64672 4378 ft 204 kts 196°
2026-05-06 13:15 43.07484 141.64469 4211 ft 203 kts 192°
2026-05-06 13:15 43.06065 141.64426 3939 ft 205 kts 181°
2026-05-06 13:15 43.04646 141.64625 3669 ft 205 kts 178°
2026-05-06 13:15 43.03239 141.64884 3554 ft 205 kts 177°
2026-05-06 13:16 43.01848 141.65142 3492 ft 198 kts 178°
2026-05-06 13:16 43.00530 141.65376 3412 ft 184 kts 176°
2026-05-06 13:16 42.99312 141.65581 3324 ft 169 kts 178°
2026-05-06 13:16 42.98201 141.65769 3239 ft 153 kts 178°
2026-05-06 13:17 42.96840 141.65997 3159 ft 148 kts 178°
2026-05-06 13:17 42.96148 141.66114 3107 ft 148 kts 178°
2026-05-06 13:17 42.95119 141.66292 3048 ft 149 kts 178°
2026-05-06 13:17 42.94100 141.66473 2987 ft 148 kts 177°
2026-05-06 13:18 42.93057 141.66661 2829 ft 154 kts 178°
2026-05-06 13:18 42.91993 141.66850 2633 ft 154 kts 177°
2026-05-06 13:18 42.90938 141.67036 2481 ft 151 kts 176°
2026-05-06 13:18 42.89899 141.67225 2306 ft 150 kts 176°
2026-05-06 13:19 42.88866 141.67409 2101 ft 149 kts 175°
2026-05-06 13:19 42.87844 141.67589 1904 ft 148 kts 175°
2026-05-06 13:19 42.86835 141.67768 1714 ft 143 kts 174°
2026-05-06 13:19 42.85869 141.67939 1496 ft 137 kts 174°
2026-05-06 13:20 42.84942 141.68101 1319 ft 130 kts 172°
2026-05-06 13:20 42.84072 141.68257 1154 ft 124 kts 173°
2026-05-06 13:20 42.83213 141.68408 974 ft 124 kts 171°
2026-05-06 13:20 42.82351 141.68561 809 ft 127 kts 171°
2026-05-06 13:21 42.81470 141.68718 637 ft 128 kts 168°
2026-05-06 13:21 42.80592 141.68887 452 ft 127 kts 168°
2026-05-06 13:21 42.79728 141.69021 293 ft 126 kts 171°
2026-05-06 13:21 42.78852 141.69178 122 ft 125 kts 168°
2026-05-06 13:22 42.78045 141.69315 88 ft 106 kts 169°
2026-05-06 13:22 42.77428 141.69429 88 ft 75 kts 172°
2026-05-06 13:22 42.76986 141.69505 90 ft 55 kts 173°
2026-05-06 13:22 42.76794 141.69487 90 ft 12 kts 198°
2026-05-06 13:23 42.76710 141.69445 90 ft 14 kts 202°
2026-05-06 13:23 42.76633 141.69397 87 ft 11 kts 219°
2026-05-06 13:23 42.76613 141.69297 87 ft 13 kts 263°
2026-05-06 13:23 42.76599 141.69155 86 ft 16 kts 263°
2026-05-06 13:24 42.76615 141.69003 89 ft 17 kts 306°
2026-05-06 13:24 42.76725 141.68957 89 ft 18 kts 352°
2026-05-06 13:24 42.76858 141.68933 89 ft 20 kts 352°
2026-05-06 13:24 42.77007 141.68907 87 ft 23 kts 352°
2026-05-06 13:25 42.77169 141.68878 88 ft 25 kts 352°
2026-05-06 13:25 42.77346 141.68846 89 ft 27 kts 352°
2026-05-06 13:25 42.77534 141.68812 89 ft 28 kts 353°
2026-05-06 13:25 42.77732 141.68779 88 ft 29 kts 353°
2026-05-06 13:26 42.77934 141.68743 90 ft 22 kts 352°
2026-05-06 13:26 42.78060 141.68721 90 ft 19 kts 352°
2026-05-06 13:26 42.78201 141.68696 89 ft 22 kts 352°
2026-05-06 13:26 42.78334 141.68668 88 ft 17 kts 342°
2026-05-06 13:27 42.78414 141.68543 87 ft 18 kts 289°
2026-05-06 13:27 42.78442 141.68479 90 ft 12 kts 324°
2026-05-06 13:27 42.78539 141.68453 87 ft 16 kts 353°
2026-05-06 13:27 42.78629 141.68430 89 ft 10 kts 331°
2026-05-06 13:28 42.78650 141.68385 89 ft 5 kts 287°
2026-05-06 13:28 42.78664 141.68323 89 ft 8 kts 286°
2026-05-06 13:28 42.78671 141.68289 88 ft 0 kts 285°
2026-05-06 13:28 42.78672 141.68283 89 ft 1 kts 285°
2026-05-06 13:29 42.78673 141.68279 89 ft 0 kts 285°